User: anonymous
Location: Caribou
(46.8667°N, 68.0167°W)
Time: 17:20:02
(UTC-04:00)
Language:

SL-08 RB Rocket - Orbit

View from above orbital plane
View from above orbital plane
View from above satellite
View from above satellite

Ground track
Ground track

The orbit data is extracted from the following two-line orbital elements,

1 26387U 00033D   14244.75477404  .00000333  00000-0  67537-4 0  5903
2 26387 098.0996 311.6076 0025909 333.2518 177.9586 14.67353350758317
Epoch (UTC): 01 September 2014 18:06:52
Eccentricity: 0.0025909
inclination: 98.0996°
perigee height: 651 km
apogee height: 688 km
right ascension of ascending node: 311.6076°
argument of perigee: 333.2518°
revolutions per day: 14.67353350
mean anomaly at epoch: 177.9586°
orbit number at epoch: 75831

The dashed part of the orbit path shows where the satellite is in the earth's shadow,  

DLR